Location: Härggis
(46.9540°N, 8.4897°E)
Time: 00:11:42
(UTC+00:00)

Cosmos 2150 Rocket - Pass Details

Date: 27 May 2022
Orbit: 749 x 807 km, 74.0° (Epoch: 02 July)

Event Time Altitude Azimuth Distance (km) Brightness Sun altitude
Exits shadow 00:32:41 35° 233° (SW) 1,206 4.6 -20.0°
Maximum altitude 00:34:41 58° 296° (WNW) 877 4.3 -19.9°
Drops below altitude 10° 00:39:46 10° 15° (NNE) 2,281 7.7 -19.6°
Sets 00:42:11 0° 20° (NNE) 3,208 8.9 -19.5°
